[Iaude] MPEC E38: 2024 EW [a=1.25,e=0.14,i=3.7,H=25.6]
    mpec at cfa.harvard.edu 
    mpec at cfa.harvard.edu
       
    Mon Mar  4 09:00:08 EST 2024
    
    
  
M.P.E.C. 2024-E38                                 Issued 2024 March 4, 13:58 UT
     The Minor Planet Electronic Circulars contain information on unusual
         minor planets, routine data on comets and natural satellites,
         and occasional editorial announcements.  They are published
    on behalf of Division F of the International Astronomical Union by the
          Minor Planet Center, Smithsonian Astrophysical Observatory,
                          Cambridge, MA 02138, U.S.A.
			  
             Prepared using the Tamkin Foundation Computer Network
                              MPC at CFA.HARVARD.EDU
            URL https://www.minorplanetcenter.net/    ISSN 1523-6714
                                    2024 EW                                     
Observations:
     K24E00W* C2024 03 02.31508410 43 30.724+22 34 54.26         21.43wXEE038F51
     K24E00W  C2024 03 02.32736610 43 29.989+22 34 30.32         21.40wXEE038F51
     K24E00W  C2024 03 02.35195110 43 28.429+22 33 41.79         21.65wXEE038F51
     K24E00W KC2024 03 03.18043910 43 05.156+22 03 48.60         21.00GVEE038I52
     K24E00W KC2024 03 03.18231010 43 05.074+22 03 44.82         20.84GVEE038I52
     K24E00W KC2024 03 03.18689410 43 04.901+22 03 37.12               VEE038I52
     K24E00W KC2024 03 03.18878010 43 04.728+22 03 31.50         20.55GVEE038I52
     K24E00W  C2024 03 03.55330510 42 45.505+21 50 34.52         21.26GVEE038F52
     K24E00W  C2024 03 03.55412610 42 45.455+21 50 32.67         21.19GVEE038F52
     K24E00W KC2024 03 04.16267710 42 34.96 +21 27 35.4          21.2 GVEE038H21
     K24E00W KC2024 03 04.17107810 42 34.46 +21 27 17.1          21.3 GVEE038H21
     K24E00W KC2024 03 04.17994710 42 33.88 +21 26 57.9          21.0 GVEE038H21
Observer details:
F51 Pan-STARRS 1, Haleakala.  Observers J. Herman, T. Lowe, P. Minguez, A.
    Schultz, I. Smith.  Measurers K. Chambers, T. de Boer, J. Fairlamb, H.
    Gao, M. Huber, C.-C. Lin, E. Magnier, Y. Ramanjooloo, R. Wainscoat, R.
    Weryk.  1.8-m Ritchey-Chretien + CCD.
F52 Pan-STARRS 2, Haleakala.  Observers J. Herman, T. Lowe, P. Minguez, A.
    Schultz, I. Smith.  Measurers K. Chambers, T. de Boer, J. Fairlamb, H.
    Gao, M. Huber, C.-C. Lin, E. Magnier, Y. Ramanjooloo, R. Wainscoat, R.
    Weryk.  1.8-m Ritchey-Chretien + CCD.
H21 Astronomical Research Observatory, Westfield.  Observer R. Holmes.
    Measurers T. Linder, R. Holmes, L. Horn.  0.76-m f/3.0 astrograph + CCD.
I52 Steward Observatory, Mt. Lemmon Station.  Observers T. Beuden, J. K.
    Hogan.  Measurers T. Beuden, V. F. Carvajal, D. Fay, J. B. Fazekas, D. C.
    Fuls, A. R. Gibbs, A. D. Grauer, H. Groeller, J. K. Hogan, R. A. Kowalski,
    S. M. Larson, G. J. Leonard, D. Rankin, R. L. Seaman, F. C. Shelly, K. W.
    Wierzchos.  1.0-m prime focus + CCD.
Orbital elements:
2024 EW                                                  Earth MOID = 0.0778 AU
Epoch 2024 Mar. 31.0 TT = JDT 2460400.5                 MPC                     
M   8.61740              (2000.0)            P               Q                  
n   0.70403239     Peri.  177.95116     -0.99834739     -0.05745022             
a   1.2514331      Node   358.75278     +0.05176757     -0.88847633             
e   0.1420603      Incl.    3.69048     +0.02495214     -0.45531230             
P   1.40           H   25.63          G   0.15           U   7                  
Residuals in seconds of arc
240302 F51  0.0   0.1-    240303 I52  0.3-  0.2-    240303 F52  0.0   0.0
240302 F51  0.0   0.0     240303 I52  0.9+  1.4+    240304 H21  0.2+  0.0
240302 F51  0.0   0.1+    240303 I52  0.0   0.3-    240304 H21  0.2+  0.1-
240303 I52  0.6-  0.2-    240303 F52  0.0   0.1-    240304 H21  0.4-  0.1+
Ephemeris:
2024 EW                  a,e,i = 1.25, 0.14, 4                   q = 1.0737
Date    TT    R. A. (2000) Decl.     Delta      r    Elong.  Phase     V
2024 02 03    10 46 12.1 +30 47 50   0.1359  1.1080   152.7    24.1    22.6
...
2024 02 18    10 48 34.0 +28 20 43   0.1067  1.0893   160.4    17.7    21.9
...
2024 02 26    10 45 55.0 +25 21 35   0.09585 1.0821   163.5    15.1    21.5
...
2024 03 03    10 43 06.2 +22 10 47   0.08982 1.0781   164.4    14.3    21.4
2024 03 04    10 42 37.1 +21 34 15   0.08900 1.0776   164.4    14.4    21.4
2024 03 05    10 42 08.3 +20 56 24   0.08823 1.0770   164.3    14.4    21.3
...
2024 03 11    10 39 35.9 +16 43 43   0.08479 1.0747   162.8    15.8    21.3
...
2024 03 19    10 38 20.0 +10 13 40   0.08335 1.0736   158.7    19.7    21.4
...
2024 04 03    10 45 51.5 -02 26 21   0.08980 1.0779   149.1    28.5    21.8
A. U. Tomatic                (C) Copyright 2024 MPC           M.P.E.C. 2024-E38
    
    
More information about the Iaude
mailing list